Regional Weather Roundup
Issued by NWS Mobile, AL

Home | Current Version | Previous Version | Text Only | Print | Product List | Glossary On
Versions: 1 2 3 4 5 6 7 8 9 10 11 12 13 14 15 16 17 18 19 20 21 22 23 24 25 26 27 28 29 30 31 32 33 34 35 36 37 38 39 40 41 42 43 44 45 46 47 48 49 50
000
ASUS44 KMOB 060616
RWRMOB
REGIONAL WEATHER ROUNDUP
NATIONAL WEATHER SERVICE MOBILE AL
100 AM CDT MON JUL 06 2015

ALZ061>064-060700-
COASTAL ALABAMA


CITY           SKY/WX    TMP DP  RH WIND       PRES   REMARKS
MOBILE REG APT PTCLDY    68  68 100 CALM      30.13R
6HR MIN TEMP:  68; 6HR MAX TEMP:  70;

BROOKLEY FIELD PTCLDY    72  69  90 S7        30.12R
6HR MIN TEMP:  68; 6HR MAX TEMP:  72; 6HR PCP:  0.01;

GULF SHORES    PTCLDY    70  68  95 N6        30.11R
6HR MIN TEMP:  69; 6HR MAX TEMP:  75;


$$

ALZ051>060-060700-
INTERIOR SOUTHWEST AND SOUTH CENTRAL ALABAMA


CITY           SKY/WX    TMP DP  RH WIND       PRES   REMARKS
ANDALUSIA/OPP  CLEAR     71  66  84 CALM      30.11S
6HR MIN TEMP:  71; 6HR MAX TEMP:  77;

EVERGREEN      CLOUDY    67  67 100 CALM      30.11S FOG
6HR MIN TEMP:  67; 6HR MAX TEMP:  71;

FLORALA        CLEAR     68  66  93 CALM      30.12F
6HR MIN TEMP:  67; 6HR MAX TEMP:  74;

GREENVILLE     FAIR      68  66  94 CALM      30.10S
6HR MIN TEMP:  67; 6HR MAX TEMP:  71;


$$

FLZ001>006-060700-
WESTERN FLORIDA PANHANDLE


CITY           SKY/WX    TMP DP  RH WIND       PRES   REMARKS
CRESTVIEW      CLEAR     68  67  96 CALM      30.13F
6HR MIN TEMP:  68; 6HR MAX TEMP:  78;

DESTIN         PTCLDY    75  69  81 CALM      30.11F
6HR MIN TEMP:  74; 6HR MAX TEMP:  80;

DUKE FIELD     FAIR      70  67  91 S5        30.11F
6HR MIN TEMP:  69; 6HR MAX TEMP:  78;

MARY ESTHER    PTCLDY    73  65  77 E2        30.09F
6HR MIN TEMP:  73; 6HR MAX TEMP:  78;

MILTON         CLEAR     70  67  90 SE6       30.11F
6HR MIN TEMP:  70; 6HR MAX TEMP:  75; 6HR PCP: TRACE;

PENSACOLA      PTCLDY    70  67  90 CALM      30.11S
6HR MIN TEMP:  69; 6HR MAX TEMP:  74; 6HR PCP: TRACE;

NAS PENSACOLA  PTCLDY    71  67  87 NW3       30.11R
6HR MIN TEMP:  69; 6HR MAX TEMP:  74; 6HR PCP: TRACE;

VALPARAISO     MOCLDY    73  68  86 CALM      30.11F
6HR MIN TEMP:  72; 6HR MAX TEMP:  78;


$$

...MARINE OBSERVATIONS...

STATION/POSITION TIME  SKY/WX   TEMP    WIND        PRES    VSBY
                                AIR SEA DIR/SP/G
                 (UTC)          (F)     (DEG/KT/KT) (MB)    (MI)
PASCAGOULA       0500            73     130/  5/  5 1018.3F
PETIT BOIS ISL   0500            78      50/  5/  6 1019.4R
E DAUPHIN ISLAND 0600            78      40/  4/  6 1019.3R
MIDDLE BAY LIGHT 0500            76      30/  4     1018.0F
USCG MOBILE BAY  0500            73 83  350/  2/  4 1017.7F
STATE DOCKS      0500            73 84              1018.5F
MEAHER PARK      0600            71     110/  7     1019.3R
FORT MORGAN      0500            77      80/  3/  3 1018.8R
12 S ORANGE BCH  0550            80 82  160/ 12/ 14 1018.3F
WVE H/P(F/S)=  2/ 5

PENSACOLA BAY    0500            75 84   90/  2/  4 1019.8F
64 S DAUPHIN ISL 0550            81 84  160/ 12/ 14 1020.0F
WVE H/P(F/S)=  2/ 5

67 S FORT MORGAN 0530            79     150/  8     1020.0F
115 SE PENSACOLA 0550            81 84  150/  6/  8 1021.5F
WVE H/P(F/S)=  1/ 8

MID GULF/42001   0550            85 86   80/  8/ 10 1020.3S
WVE H/P(F/S)=  2/ 7

EAST GULF/42003  0550            83 86   50/ 10/ 12 1020.3F
WVE H/P(F/S)=  4/ 5


$$

...NEARBY LOCATIONS

CITY           SKY/WX    TMP DP  RH WIND       PRES   REMARKS
GULFPORT       MOCLDY    70  68  93 CALM      30.09R
6HR MIN TEMP:  70; 6HR MAX TEMP:  72; 6HR PCP:  0.31;

BILOXI         MOCLDY    73  69  86 CALM      30.09R
6HR MIN TEMP:  70; 6HR MAX TEMP:  73; 6HR PCP:  0.26;

PASCAGOULA     PTCLDY    69  68  96 VRB3      30.12R
6HR MIN TEMP:  69; 6HR MAX TEMP:  71; 6HR PCP: TRACE;

HATTIESBURG    MOCLDY    68  66  93 NE3       30.09F
6HR MIN TEMP:  68; 6HR MAX TEMP:  72; 6HR PCP: TRACE;

LAUREL         MOCLDY    66  64  94 CALM      30.10S
6HR MIN TEMP:  66; 6HR MAX TEMP:  70;

MERIDIAN       PTCLDY    67  65  93 NE3       30.07F
6HR MIN TEMP:  66; 6HR MAX TEMP:  71;

MERIDIAN NAS   FOG       66  65  96 E3        30.07F VSB 3/4
6HR MIN TEMP:  66; 6HR MAX TEMP:  72;

MONTGOMERY     MOCLDY    71  68  90 NE3       30.10F
6HR MIN TEMP:  71; 6HR MAX TEMP:  78;

MAXWELL AFB    CLOUDY    71  70  95 SE5       30.10F
6HR MIN TEMP:  71; 6HR MAX TEMP:  77;

TROY           PTCLDY    69  67  93 CALM      30.11F
6HR MIN TEMP:  69; 6HR MAX TEMP:  76;

FORT RUCKER    PTCLDY    69  67  93 CALM      30.11F
6HR MIN TEMP:  68; 6HR MAX TEMP:  78;

DALEVILLE      MOCLDY    69  68  97 SE3       30.12F
6HR MIN TEMP:  69; 6HR MAX TEMP:  77;

DOTHAN         CLEAR     69  67  93 S5          N/A
6HR MIN TEMP:  68; 6HR MAX TEMP:  77;


$$

...OTHER SURROUNDING LOCATIONS...

CITY           SKY/WX    TMP DP  RH WIND       PRES   REMARKS
BIRMINGHAM     CLOUDY    73  70  90 SW8       30.12F
6HR MIN TEMP:  73; 6HR MAX TEMP:  81;

TUSCALOOSA     MOCLDY    70  68  93 CALM      30.10S
6HR MIN TEMP:  70; 6HR MAX TEMP:  78;

COLUMBUS GA    CLOUDY    73  70  90 S3        30.11F
6HR MIN TEMP:  73; 6HR MAX TEMP:  79;

PANAMA CITY    NOT AVBL
TALLAHASSEE    PTCLDY    71  69  93 CALM      30.14F
6HR MIN TEMP:  71; 6HR MAX TEMP:  78;

BATON ROUGE    MOCLDY    71  69  93 S6        30.08S
6HR MIN TEMP:  69; 6HR MAX TEMP:  71; 6HR PCP:  1.55;

NEW ORLEANS    MOCLDY    75  69  81 S8        30.08F
6HR MIN TEMP:  73; 6HR MAX TEMP:  75;

SLIDELL        MOCLDY    70  70 100 CALM      30.08F
6HR MIN TEMP:  69; 6HR MAX TEMP:  71; 6HR PCP:  0.06;

JACKSON        PTCLDY    68  67  96 SE3       30.06F
6HR MIN TEMP:  68; 6HR MAX TEMP:  75;

MCCOMB         PTCLDY    67  67 100 SW3       30.09S
6HR MIN TEMP:  66; 6HR MAX TEMP:  70; 6HR PCP:  0.07;


$$

...SURROUNDING MARINE OBSERVATIONS...

STATION/POSITION TIME  SKY/WX   TEMP    WIND        PRES    VSBY
                                AIR SEA DIR/SP/G
                 (UTC)          (F)     (DEG/KT/KT) (MB)    (MI)
WAVELAND         0500            72 81  300/  1/  3 1018.9R
PASCAGOULA RGN A 0500            73     150/  5/  7 1018.1F
PASCAGOULA PORT  0500               82                N/A
GRAND ISLE       0500            80 86  150/  9/ 14 1019.8F
SOUTHWEST PASS   0600            81     130/ 14/ 15 1019.7F
PILOT STATION E  0500            79 82  110/ 13/ 15 1020.5F
SHELL BEACH      0500            76 83  180/  8/  9 1018.5F
PANAMA CITY      0500            79 83  290/  4/  5 1020.3F
APALACHICOLA     0500            77 85  240/  2/  3 1021.3R
TYNDALL TOWER C  0600            80     180/  5/  5 1020.9F
S APLCHCLA/42036 0550            83 85  120/  4/  4 1021.2F
WVE H/P(F/S)=  2/ 6


$$



USA.gov is the U.S. government's official web portal to all federal, state and local government web resources and services.